Location: Coleto Creek Park and Reservoir
(28.7196°N, 97.1740°W)
Time: 14:07:54
(UTC-05:00)

HST - Visible Passes

Search period start: 01 September 2014 00:00
Search period end: 11 September 2014 00:00
Orbit: 547 x 551 km, 28.5° (Epoch: 31 August)

Date Brightness Start Highest point End Pass type
(mag) Time Alt. Az. Time Alt. Az. Time Alt. Az.
01 Sep 3.1 05:28:36 14° SSE 05:28:36 14° SSE 05:29:26 10° SSE visible
02 Sep 2.8 20:44:31 10° S 20:46:14 12° SSE 20:46:25 12° SSE visible
03 Sep 2.5 20:36:30 10° SSW 20:39:11 17° SSE 20:40:24 15° SE visible
04 Sep 2.2 20:28:55 10° SSW 20:32:10 22° SSE 20:34:17 15° ESE visible
04 Sep 3.4 22:09:12 10° WSW 22:09:52 14° WSW 22:09:52 14° WSW visible
05 Sep 1.9 20:21:33 10° SW 20:25:09 28° SSE 20:28:03 14° ESE visible
05 Sep 3.0 22:02:12 10° WSW 22:03:37 21° WSW 22:03:37 21° WSW visible
06 Sep 1.6 20:14:18 10° SW 20:18:08 36° SSE 20:21:42 12° E visible
06 Sep 2.6 21:55:15 10° W 21:57:16 28° WSW 21:57:16 28° WSW visible
07 Sep 1.3 20:07:09 10° SW 20:11:09 45° SSE 20:15:08 10° E visible
07 Sep 2.2 21:48:19 10° W 21:50:50 36° W 21:50:50 36° W visible
08 Sep 1.1 20:00:05 10° WSW 20:04:10 55° SSE 20:08:15 10° E visible
08 Sep 1.8 21:41:23 10° W 21:44:19 44° W 21:44:19 44° W visible
09 Sep 1.4 21:34:27 10° W 21:37:44 54° W 21:37:44 54° W visible
10 Sep 1.1 21:27:31 10° W 21:31:07 65° W 21:31:07 65° W visible
